GW4258 Weather Reports


time (UTC)temp
F
wind
direction
speed
knots
gust
knots
rain 1hr
in
rain 24hr
in
rain mn
in
humidity
%
barometer
mb
20260504130737 55 293 5.2 7.0 0.00 0.00 0.00 47 1014.2
20260504130232 54 273 2.6 4.3 0.00 0.00 0.00 49 1014.2
20260504120156 52 283 3.5 3.5 0.00 0.00 0.00 51 1014.8
20260504110624 48 277 2.6 2.6 0.00 0.00 0.00 57 1014.3
20260504110120 48 276 2.6 3.5 0.00 0.00 0.00 57 1014.3
20260504100545 46 276 2.6 2.6 0.00 0.00 0.00 57 1014.0
20260504081939 48 290 4.3 4.3 0.00 0.00 0.00 55 1014.3
20260504081436 47 276 3.5 4.3 0.00 0.00 0.00 55 1014.3
20260504080932 48 272 3.5 4.3 0.00 0.00 0.00 55 1014.4
20260504080429 48 279 3.5 6.1 0.00 0.00 0.00 55 1014.4
20260504070356 49 278 3.5 6.1 0.00 0.00 0.00 52 1014.2
20260504050744 50 268 3.5 4.3 0.00 0.00 0.00 50 1014.2
20260504050241 50 277 4.3 6.1 0.00 0.00 0.00 51 1014.2
20260504045738 50 270 5.2 6.1 0.00 0.00 0.00 51 1014.3
20260504045233 50 269 4.3 4.3 0.00 0.00 0.00 51 1014.1
20260504044731 50 267 4.3 4.3 0.00 0.00 0.00 52 1014.1
20260504044229 50 272 3.5 4.3 0.00 0.00 0.00 51 1014.2
20260504043725 50 274 3.5 7.0 0.00 0.00 0.00 50 1014.1
20260504043222 50 276 4.3 4.3 0.00 0.00 0.00 50 1014.1
20260504042720 50 271 3.5 4.3 0.00 0.00 0.00 51 1014.1
20260504042216 50 276 3.5 4.3 0.00 0.00 0.00 50 1014.0
20260504041712 50 271 4.3 4.3 0.00 0.00 0.00 50 1014.1
20260504041208 50 275 3.5 3.5 0.00 0.00 0.00 51 1014.1
20260504040705 50 272 3.5 4.3 0.00 0.00 0.00 51 1014.1
20260504040202 50 274 3.5 4.3 0.00 0.00 0.00 51 1013.9
20260504035658 50 271 3.5 4.3 0.00 0.00 0.00 50 1014.0
20260504035156 50 266 4.3 4.3 0.00 0.00 0.00 50 1013.8
20260504034653 50 269 3.5 4.3 0.00 0.00 0.00 49 1013.7
20260504034150 50 265 4.3 4.3 0.00 0.00 0.00 50 1013.6
20260504033648 50 265 3.5 4.3 0.00 0.00 0.00 50 1013.5
20260504033145 51 266 3.5 6.1 0.00 0.00 0.00 48 1013.7
20260504032641 51 275 3.5 4.3 0.00 0.00 0.00 49 1013.7
20260504032139 51 264 4.3 6.1 0.00 0.00 0.00 48 1013.6
20260504031636 51 267 4.3 4.3 0.00 0.00 0.00 48 1013.5
20260504031132 51 261 5.2 6.1 0.00 0.00 0.00 47 1013.5
20260504030629 51 266 4.3 4.3 0.00 0.00 0.00 47 1013.5
20260504030125 51 265 4.3 6.1 0.00 0.00 0.00 47 1013.6
20260504025622 52 264 4.3 6.1 0.00 0.00 0.00 46 1013.7
20260504025119 52 266 5.2 6.1 0.00 0.00 0.00 47 1013.4
20260504024617 52 269 3.5 4.3 0.00 0.00 0.00 47 1013.5
20260504024113 52 268 3.5 4.3 0.00 0.00 0.00 46 1013.6
20260504023610 52 270 3.5 4.3 0.00 0.00 0.00 46 1013.5
20260504023105 52 265 4.3 4.3 0.00 0.00 0.00 47 1013.6
20260504022602 52 272 3.5 3.5 0.00 0.00 0.00 47 1013.7
20260504022058 52 275 3.5 3.5 0.00 0.00 0.00 46 1013.6
20260504021556 52 271 3.5 4.3 0.00 0.00 0.00 46 1013.5
20260504021053 53 278 4.3 4.3 0.00 0.00 0.00 45 1013.7
20260504020549 53 277 4.3 4.3 0.00 0.00 0.00 44 1013.6
20260504020046 53 268 4.3 6.1 0.00 0.00 0.00 44 1013.6
20260504015542 53 272 3.5 6.1 0.00 0.00 0.00 44 1013.7
20260504015038 53 264 5.2 6.1 0.00 0.00 0.00 44 1013.5
20260504014535 53 265 4.3 6.1 0.00 0.00 0.00 44 1013.6
20260504014032 53 262 5.2 6.1 0.00 0.00 0.00 43 1013.6
20260504013530 53 270 4.3 4.3 0.00 0.00 0.00 43 1013.5
20260504013026 53 263 4.3 6.1 0.00 0.00 0.00 44 1013.5
20260504012524 53 262 4.3 4.3 0.00 0.00 0.00 44 1013.5
20260504012021 53 267 3.5 4.3 0.00 0.00 0.00 44 1013.4
20260504011517 53 265 4.3 6.1 0.00 0.00 0.00 43 1013.5
20260504011013 53 264 3.5 4.3 0.00 0.00 0.00 43 1013.4
20260504010509 53 271 3.5 4.3 0.00 0.00 0.00 42 1013.4
20260504010005 53 276 2.6 3.5 0.00 0.00 0.00 42 1013.3
20260504005502 54 274 2.6 4.3 0.00 0.00 0.00 42 1013.4
20260504005000 54 281 3.5 3.5 0.00 0.00 0.00 42 1013.1
20260504004457 54 285 3.5 4.3 0.00 0.00 0.00 42 1013.3
20260504003954 54 283 3.5 4.3 0.00 0.00 0.00 41 1013.2
20260504003450 54 275 2.6 6.1 0.00 0.00 0.00 42 1013.0
20260504002947 54 278 3.5 4.3 0.00 0.00 0.00 42 1013.0
20260504002444 54 288 2.6 3.5 0.00 0.00 0.00 43 1012.9
20260504001942 54 276 2.6 3.5 0.00 0.00 0.00 42 1012.6
20260504001439 54 281 3.5 4.3 0.00 0.00 0.00 41 1012.6
20260504000935 54 286 3.5 3.5 0.00 0.00 0.00 42 1012.7
20260504000433 55 288 3.5 3.5 0.00 0.00 0.00 42 1012.8
20260503235930 55 283 3.5 4.3 0.00 0.00 0.00 41 1012.8
20260503235428 55 285 4.3 6.1 0.00 0.00 0.00 41 1012.6
20260503234925 56 276 4.3 6.1 0.00 0.00 0.00 39 1012.5
20260503234422 56 290 5.2 6.1 0.00 0.00 0.00 40 1012.6
20260503233920 56 289 4.3 6.1 0.00 0.00 0.00 39 1012.6
20260503233416 56 290 4.3 6.1 0.00 0.00 0.00 40 1012.5
20260503232913 56 290 4.3 6.1 0.00 0.00 0.00 40 1012.3
20260503232410 56 293 5.2 8.7 0.00 0.00 0.00 39 1012.3
20260503231908 57 288 6.1 9.6 0.00 0.00 0.00 39 1012.2
20260503231405 57 295 7.0 12.2 0.00 0.00 0.00 37 1012.2
20260503230901 57 287 7.8 10.4 0.00 0.00 0.00 37 1012.2
20260503230357 58 290 8.7 10.4 0.00 0.00 0.00 36 1012.2
20260503225855 57 302 5.2 9.6 0.00 0.00 0.00 37 1012.2
20260503225351 57 276 7.0 9.6 0.00 0.00 0.00 38 1012.2
20260503224848 58 299 7.0 10.4 0.00 0.00 0.00 37 1012.2
20260503224345 59 302 6.1 8.7 0.00 0.00 0.00 36 1012.1
20260503223843 58 305 7.8 9.6 0.00 0.00 0.00 34 1012.0
20260503223340 59 291 7.0 8.7 0.00 0.00 0.00 36 1012.0
20260503222835 58 295 7.0 8.7 0.00 0.00 0.00 36 1012.1
20260503222334 58 285 7.8 9.6 0.00 0.00 0.00 36 1012.2
20260503221832 58 305 6.1 8.7 0.00 0.00 0.00 36 1012.2
20260503221331 59 303 7.8 9.6 0.00 0.00 0.00 34 1012.1
20260503220826 59 291 8.7 9.6 0.00 0.00 0.00 35 1012.1
20260503220323 58 297 6.1 8.7 0.00 0.00 0.00 36 1012.3
20260503215814 59 288 9.6 10.4 0.00 0.00 0.00 36 1012.1
20260503215311 60 292 6.1 7.0 0.00 0.00 0.00 35 1012.2
20260503214809 60 294 6.1 7.0 0.00 0.00 0.00 35 1012.2
20260503214306 58 296 4.3 8.7 0.00 0.00 0.00 35 1012.1
20260503213803 58 297 6.1 8.7 0.00 0.00 0.00 36 1012.2
20260503213300 59 294 9.6 9.6 0.00 0.00 0.00 35 1012.0
20260503212757 59 292 9.6 10.4 0.00 0.00 0.00 34 1011.9
20260503212255 59 276 10.4 13.0 0.00 0.00 0.00 35 1011.9
20260503211752 58 295 7.8 9.6 0.00 0.00 0.00 35 1011.9
20260503211248 58 303 7.0 8.7 0.00 0.00 0.00 35 1012.1
20260503210744 59 312 9.6 13.0 0.00 0.00 0.00 35 1012.0
20260503210242 58 294 4.3 6.1 0.00 0.00 0.00 33 1011.9
20260503205742 59 297 5.2 9.6 0.00 0.00 0.00 33 1012.0
20260503205239 60 346 2.6 4.3 0.00 0.00 0.00 34 1011.9
20260503204735 58 335 2.6 4.3 0.00 0.00 0.00 38 1012.0
20260503204233 57 299 6.1 8.7 0.00 0.00 0.00 35 1012.1
20260503203730 59 346 2.6 8.7 0.00 0.00 0.00 33 1012.0
20260503203227 59 312 4.3 7.0 0.00 0.00 0.00 33 1012.1
20260503202724 58 351 7.0 8.7 0.00 0.00 0.00 34 1012.2
20260503202222 58 324 7.0 9.6 0.00 0.00 0.00 33 1012.2
20260503201720 59 288 8.7 9.6 0.00 0.00 0.00 34 1012.1
20260503201217 58 287 14.8 15.6 0.00 0.00 0.00 33 1012.2
20260503200713 57 326 5.2 10.4 0.00 0.00 0.00 33 1012.3
20260503200210 57 316 8.7 13.0 0.00 0.00 0.00 35 1012.2
20260503195707 59 314 7.0 13.9 0.00 0.00 0.00 33 1012.4
20260503195204 58 333 5.2 9.6 0.00 0.00 0.00 33 1012.5
20260503194701 58 353 5.2 8.7 0.00 0.00 0.00 33 1012.4
20260503194156 57 326 7.8 9.6 0.00 0.00 0.00 33 1012.7
20260503193653 56 326 3.5 7.0 0.00 0.00 0.00 35 1012.6
20260503193149 58 324 7.8 12.2 0.00 0.00 0.00 34 1012.8
20260503192645 57 294 12.2 13.9 0.00 0.00 0.00 34 1012.8
20260503192140 57 310 9.6 12.2 0.00 0.00 0.00 35 1012.8
20260503191637 57 301 3.5 6.1 0.00 0.00 0.00 37 1012.9
20260503191134 56 315 4.3 10.4 0.00 0.00 0.00 34 1013.0
20260503190631 56 311 8.7 10.4 0.00 0.00 0.00 35 1012.8
20260503190128 56 334 10.4 13.0 0.00 0.00 0.00 35 1013.0
20260503185625 56 351 6.1 13.9 0.00 0.00 0.00 37 1012.9
20260503185120 55 325 8.7 10.4 0.00 0.00 0.00 36 1013.1
20260503184615 56 295 6.1 7.0 0.00 0.00 0.00 37 1013.3
20260503184112 55 346 3.5 10.4 0.00 0.00 0.00 35 1013.3
20260503183609 55 348 3.5 9.6 0.00 0.00 0.00 37 1013.3
20260503183106 55 312 8.7 13.0 0.00 0.00 0.00 38 1013.4
20260503182604 55 353 6.1 10.4 0.00 0.00 0.00 35 1013.4
20260503182102 55 323 7.0 13.0 0.00 0.00 0.00 36 1013.3
20260503181559 55 302 12.2 13.9 0.00 0.00 0.00 37 1013.4
20260503181055 53 304 8.7 13.9 0.00 0.00 0.00 38 1013.4
20260503180552 53 303 13.9 15.6 0.00 0.00 0.00 38 1013.4
20260503180050 54 294 7.8 13.0 0.00 0.00 0.00 38 1013.4
20260503175547 53 276 9.6 10.4 0.00 0.00 0.00 39 1013.4
20260503175044 53 351 5.2 9.6 0.00 0.00 0.00 37 1013.5
20260503174541 52 317 9.6 12.2 0.00 0.00 0.00 39 1013.6
20260503174037 53 298 9.6 13.0 0.00 0.00 0.00 39 1013.5
20260503173532 54 306 14.8 18.2 0.00 0.00 0.00 39 1013.5
20260503173029 53 300 11.3 13.0 0.00 0.00 0.00 39 1013.6
20260503172527 52 322 6.1 9.6 0.00 0.00 0.00 39 1013.6
20260503172024 53 300 5.2 8.7 0.00 0.00 0.00 37 1013.8
20260503171520 52 347 2.6 8.7 0.00 0.00 0.00 38 1013.9
20260503171018 51 348 3.5 7.0 0.00 0.00 0.00 42 1013.9
20260503170514 53 327 4.3 7.0 0.00 0.00 0.00 41 1014.0
20260503150906 49 283 9.6 10.4 0.00 0.00 0.00 46 1014.4
20260503150403 50 315 3.5 6.1 0.00 0.00 0.00 43 1014.3
20260503131256 46 331 2.6 3.5 0.00 0.00 0.00 57 1014.9